FW1241 Weather Reports


Display with metric or nautical units.
time (UTC)temp
F
wind
direction
speed
MPH
gust
MPH
rain 1hr
in
rain 24hr
in
rain mn
in
humidity
%
barometer
mb
20180620190601 91 132 1.0 3.0 0.00 0.00 0.00 42 1012.0
20180620190101 91 318 2.0 3.0 0.00 0.00 0.00 40 1012.1
20180620185102 90 186 0.0 1.0 0.00 0.00 0.00 43 1012.1
20180620183602 90 175 0.0 2.0 0.00 0.00 0.00 44 1012.2
20180620183102 89 135 1.0 2.0 0.00 0.00 0.00 45 1012.3
20180620182601 89 350 0.0 2.0 0.00 0.00 0.00 46 1012.4
20180620182101 88 162 0.0 2.0 0.00 0.00 0.00 48 1012.4
20180620181601 87 144 1.0 3.0 0.00 0.00 0.00 46 1012.4
20180620181101 87 340 1.0 3.0 0.00 0.00 0.00 45 1012.4
20180620180601 87 148 1.0 5.0 0.00 0.00 0.00 47 1012.4
20180620180102 87 166 1.0 2.0 0.00 0.00 0.00 48 1012.5
20180620175602 86 136 1.0 3.0 0.00 0.00 0.00 49 1012.4
20180620174602 86 139 1.0 5.0 0.00 0.00 0.00 48 1012.6
20180620174102 85 172 2.0 5.0 0.00 0.00 0.00 48 1012.6
20180620173601 85 173 0.0 3.0 0.00 0.00 0.00 48 1012.6
20180620173102 85 191 2.0 3.0 0.00 0.00 0.00 48 1012.6
20180620172101 85 191 1.0 3.0 0.00 0.00 0.00 50 1012.7
20180620171602 85 169 1.0 3.0 0.00 0.00 0.00 51 1012.7
20180620170102 84 14 0.0 3.0 0.00 0.00 0.00 54 1012.8
20180620164601 83 161 1.0 5.0 0.00 0.00 0.00 54 1012.8
20180620164101 83 195 1.0 3.0 0.00 0.00 0.00 55 1012.8
20180620163602 82 150 1.0 3.0 0.00 0.00 0.00 55 1012.8
20180620163101 82 140 0.0 3.0 0.00 0.00 0.00 55 1012.9
20180620162601 82 187 2.0 5.0 0.00 0.00 0.00 55 1012.8
20180620162102 82 174 1.0 5.0 0.00 0.00 0.00 55 1012.9
20180620161602 82 142 0.0 3.0 0.00 0.00 0.00 57 1012.8
20180620161101 81 150 0.0 2.0 0.00 0.00 0.00 58 1012.8
20180620160601 81 88 1.0 3.0 0.00 0.00 0.00 57 1012.9
20180620160102 81 177 1.0 2.0 0.00 0.00 0.00 57 1012.8
20180620155601 80 87 0.0 2.0 0.00 0.00 0.00 58 1012.8
20180620155102 80 122 1.0 3.0 0.00 0.00 0.00 58 1012.8
20180620154601 80 148 1.0 3.0 0.00 0.00 0.00 57 1012.8
20180620154102 80 82 1.0 5.0 0.00 0.00 0.00 57 1012.8
20180620153602 80 179 0.0 3.0 0.00 0.00 0.00 58 1012.7
20180620153102 79 320 0.0 1.0 0.00 0.00 0.00 58 1012.7
20180620152602 79 167 1.0 3.0 0.00 0.00 0.00 58 1012.6
20180620152102 78 148 1.0 3.0 0.00 0.00 0.00 59 1012.6
20180620151602 78 94 0.0 3.0 0.00 0.00 0.00 59 1012.5
20180620150602 77 135 0.0 2.0 0.00 0.00 0.00 61 1012.5
20180620150101 76 113 1.0 3.0 0.00 0.00 0.00 61 1012.5
20180620145602 75 141 0.0 2.0 0.00 0.00 0.00 62 1012.5
20180620145102 75 130 0.0 2.0 0.00 0.00 0.00 63 1012.5
20180620144602 74 169 0.0 2.0 0.00 0.00 0.00 64 1012.5
20180620144102 74 123 1.0 2.0 0.00 0.00 0.00 64 1012.5
20180620143601 73 69 0.0 3.0 0.00 0.00 0.00 65 1012.6
20180620143102 73 135 0.0 2.0 0.00 0.00 0.00 66 1012.5
20180620142601 72 146 0.0 1.0 0.00 0.00 0.00 68 1012.6
20180620142101 72 101 0.0 1.0 0.00 0.00 0.00 68 1012.6
20180620141102 71 118 0.0 1.0 0.00 0.00 0.00 70 1012.6
20180620140602 70 115 0.0 1.0 0.00 0.00 0.00 71 1012.6
20180620140102 70 111 0.0 1.0 0.00 0.00 0.00 73 1012.6
20180620135601 69 105 0.0 0.0 0.00 0.00 0.00 74 1012.6
20180620135102 68 103 0.0 0.0 0.00 0.00 0.00 75 1012.5
20180620134601 67 103 0.0 0.0 0.00 0.00 0.00 78 1012.5
20180620133601 65 103 0.0 0.0 0.00 0.00 0.00 79 1012.6
20180620132601 64 103 0.0 1.0 0.00 0.00 0.00 81 1012.6
20180620132101 64 103 0.0 0.0 0.00 0.00 0.00 81 1012.5
20180620131601 63 103 0.0 0.0 0.00 0.00 0.00 82 1012.5
20180620131101 63 103 0.0 0.0 0.00 0.00 0.00 82 1012.3
20180620130601 63 103 0.0 0.0 0.00 0.00 0.00 83 1012.3
20180620125602 63 103 0.0 0.0 0.00 0.00 0.00 84 1012.3
20180620125102 63 103 0.0 0.0 0.00 0.00 0.00 84 1012.2
20180620124601 63 103 0.0 0.0 0.00 0.00 0.00 84 1012.1
20180620124101 63 103 0.0 0.0 0.00 0.00 0.00 83 1012.0
20180620123602 63 103 0.0 0.0 0.00 0.00 0.00 84 1011.9
20180620123101 63 103 0.0 0.0 0.00 0.00 0.00 83 1011.9
20180620122102 64 103 0.0 0.0 0.00 0.00 0.00 81 1011.7
20180620121101 64 103 0.0 0.0 0.00 0.00 0.00 82 1011.6
20180620120602 64 103 0.0 0.0 0.00 0.00 0.00 81 1011.5
20180620115602 64 103 0.0 0.0 0.00 0.00 0.00 81 1011.5
20180620115102 64 103 0.0 0.0 0.00 0.00 0.00 81 1011.5
20180620114102 64 103 0.0 0.0 0.00 0.00 0.00 81 1011.5
20180620113602 64 103 0.0 0.0 0.00 0.00 0.00 81 1011.5
20180620113102 64 103 0.0 0.0 0.00 0.00 0.00 81 1011.5
20180620112601 64 103 0.0 0.0 0.00 0.00 0.00 81 1011.5
20180620112102 65 103 0.0 0.0 0.00 0.00 0.00 81 1011.5
20180620111602 65 103 0.0 0.0 0.00 0.00 0.00 80 1011.5
20180620110602 65 103 0.0 0.0 0.00 0.00 0.00 80 1011.5
20180620110102 65 103 0.0 0.0 0.00 0.00 0.00 81 1011.5
20180620105601 65 103 0.0 0.0 0.00 0.00 0.00 80 1011.4
20180620104602 66 103 0.0 0.0 0.00 0.00 0.00 78 1011.3
20180620104102 66 103 0.0 0.0 0.00 0.00 0.00 78 1011.4
20180620103602 66 103 0.0 0.0 0.00 0.00 0.00 77 1011.4
20180620103102 66 103 0.0 0.0 0.00 0.00 0.00 78 1011.5
20180620102602 67 103 0.0 1.0 0.00 0.00 0.00 76 1011.5
20180620102102 67 103 0.0 0.0 0.00 0.00 0.00 77 1011.5
20180620101101 66 103 0.0 0.0 0.00 0.00 0.00 78 1011.6
20180620100102 67 103 0.0 0.0 0.00 0.00 0.00 78 1011.7
20180620095602 67 103 0.0 0.0 0.00 0.00 0.00 77 1011.7
20180620095102 67 103 0.0 1.0 0.00 0.00 0.00 77 1011.8
20180620094602 67 103 0.0 1.0 0.00 0.00 0.00 76 1011.8
20180620094102 67 103 0.0 1.0 0.00 0.00 0.00 76 1011.8
20180620093602 67 308 0.0 0.0 0.00 0.00 0.00 77 1011.9
20180620093102 67 307 0.0 0.0 0.00 0.00 0.00 77 1012.0
20180620091602 67 307 0.0 0.0 0.00 0.00 0.00 78 1012.0
20180620091102 68 307 0.0 0.0 0.00 0.00 0.00 78 1012.0
20180620090602 68 307 0.0 0.0 0.00 0.00 0.00 78 1011.9
20180620090102 68 307 0.0 0.0 0.00 0.00 0.00 77 1012.0
20180620085601 69 307 0.0 0.0 0.00 0.00 0.00 77 1012.0
20180620085102 69 307 0.0 0.0 0.00 0.00 0.00 76 1011.9
20180620084601 69 308 0.0 0.0 0.00 0.00 0.00 76 1011.9
20180620083102 69 307 0.0 0.0 0.00 0.00 0.00 77 1011.9
20180620082102 69 307 0.0 0.0 0.00 0.00 0.00 77 1011.9
20180620081603 69 307 0.0 0.0 0.00 0.00 0.00 77 1011.9
20180620081102 69 307 0.0 7.0 0.00 0.00 0.00 77 1011.9
20180620080602 69 307 0.0 0.0 0.00 0.00 0.00 78 1011.9
20180620080102 69 307 0.0 0.0 0.00 0.00 0.00 77 1011.9
20180620075602 70 307 0.0 0.0 0.00 0.00 0.00 76 1011.9
20180620075102 70 307 0.0 0.0 0.00 0.00 0.00 77 1011.8
20180620074602 70 307 0.0 0.0 0.00 0.00 0.00 76 1011.8
20180620074102 70 307 0.0 0.0 0.00 0.00 0.00 77 1011.8
20180620073602 70 308 0.0 0.0 0.00 0.00 0.00 76 1011.8
20180620073102 71 307 0.0 0.0 0.00 0.00 0.00 75 1011.8
20180620072602 71 307 0.0 0.0 0.00 0.00 0.00 73 1011.8
20180620072102 71 307 0.0 0.0 0.00 0.00 0.00 72 1011.8
20180620071102 71 307 0.0 0.0 0.00 0.00 0.00 71 1011.7
20180620070602 71 308 0.0 0.0 0.00 0.00 0.00 71 1011.7
20180620070103 71 308 0.0 0.0 0.00 0.00 0.00 72 1011.7
20180620065602 71 307 0.0 0.0 0.00 0.00 0.00 71 1011.7
20180620065102 71 307 0.0 0.0 0.00 0.00 0.00 70 1011.7
20180620064602 72 308 0.0 0.0 0.00 0.00 0.00 70 1011.7
20180620064102 72 308 0.0 0.0 0.00 0.00 0.00 69 1011.7
20180620063602 72 307 0.0 0.0 0.00 0.00 0.00 68 1011.7
20180620063102 73 307 0.0 0.0 0.00 0.00 0.00 68 1011.7
20180620062601 74 307 0.0 0.0 0.00 0.00 0.00 67 1011.7
20180620062102 74 308 0.0 0.0 0.00 0.00 0.00 67 1011.7
20180620061102 74 307 0.0 0.0 0.00 0.00 0.00 65 1011.7
20180620060601 74 307 0.0 0.0 0.00 0.00 0.00 65 1011.7
20180620055602 74 307 0.0 0.0 0.00 0.00 0.00 64 1011.7
20180620054602 75 308 0.0 0.0 0.00 0.00 0.00 64 1011.7
20180620054102 75 307 0.0 0.0 0.00 0.00 0.00 64 1011.7
20180620053102 75 307 0.0 0.0 0.00 0.00 0.00 63 1011.6
20180620052602 75 307 0.0 0.0 0.00 0.00 0.00 62 1011.6
20180620052102 75 307 0.0 0.0 0.00 0.00 0.00 62 1011.6
20180620051602 75 308 0.0 0.0 0.00 0.00 0.00 62 1011.6
20180620051101 75 307 0.0 0.0 0.00 0.00 0.00 61 1011.6
20180620050102 76 307 0.0 0.0 0.00 0.00 0.00 61 1011.5
20180620045102 76 307 0.0 0.0 0.00 0.00 0.00 59 1011.3
20180620043601 77 307 0.0 0.0 0.00 0.00 0.00 58 1011.1
20180620043102 77 307 0.0 0.0 0.00 0.00 0.00 57 1011.1
20180620042602 78 307 0.0 0.0 0.00 0.00 0.00 57 1011.1
20180620041601 79 307 0.0 0.0 0.00 0.00 0.00 57 1011.0
20180620041102 79 307 0.0 0.0 0.00 0.00 0.00 57 1010.9
20180620040602 79 307 0.0 0.0 0.00 0.00 0.00 56 1010.8
20180620040102 80 307 0.0 0.0 0.00 0.00 0.00 55 1010.8
20180620035602 80 307 0.0 0.0 0.00 0.00 0.00 54 1010.8
20180620035102 81 307 0.0 0.0 0.00 0.00 0.00 53 1010.7
20180620034602 82 307 0.0 0.0 0.00 0.00 0.00 50 1010.7
20180620034102 82 307 0.0 0.0 0.00 0.00 0.00 49 1010.8
20180620033602 83 308 0.0 0.0 0.00 0.00 0.00 47 1010.8
20180620033102 83 308 0.0 0.0 0.00 0.00 0.00 46 1010.8
20180620031602 85 308 0.0 0.0 0.00 0.00 0.00 43 1010.8
20180620031102 85 308 0.0 0.0 0.00 0.00 0.00 43 1010.8
20180620030102 86 312 0.0 1.0 0.00 0.00 0.00 41 1010.8
20180620025602 87 314 0.0 1.0 0.00 0.00 0.00 40 1010.7
20180620023602 88 306 0.0 2.0 0.00 0.00 0.00 38 1010.6
20180620023102 89 312 1.0 2.0 0.00 0.00 0.00 38 1010.6
20180620022602 90 308 0.0 2.0 0.00 0.00 0.00 37 1010.6
20180620022102 90 309 1.0 2.0 0.00 0.00 0.00 36 1010.6
20180620021602 91 315 1.0 3.0 0.00 0.00 0.00 35 1010.6
20180620021102 91 354 1.0 3.0 0.00 0.00 0.00 35 1010.6
20180620020102 91 306 2.0 3.0 0.00 0.00 0.00 34 1010.6
20180620015602 92 311 1.0 3.0 0.00 0.00 0.00 33 1010.5
20180620013102 93 297 1.0 3.0 0.00 0.00 0.00 33 1010.5
20180620011602 93 316 1.0 5.0 0.00 0.00 0.00 33 1010.4
20180620011102 93 326 1.0 6.0 0.00 0.00 0.00 31 1010.5
20180620010102 93 310 3.0 5.0 0.00 0.00 0.00 31 1010.5
20180620005602 93 318 2.0 5.0 0.00 0.00 0.00 31 1010.5
20180620005102 94 323 2.0 3.0 0.00 0.00 0.00 32 1010.5
20180620004602 94 308 1.0 3.0 0.00 0.00 0.00 32 1010.5
20180620004102 94 317 2.0 5.0 0.00 0.00 0.00 32 1010.6
20180620003601 94 307 2.0 3.0 0.00 0.00 0.00 31 1010.6
20180620002602 94 322 2.0 6.0 0.00 0.00 0.00 31 1010.6
20180620002102 94 317 2.0 3.0 0.00 0.00 0.00 30 1010.7
20180620001102 94 309 1.0 5.0 0.00 0.00 0.00 31 1010.7
20180620000602 94 295 1.0 3.0 0.00 0.00 0.00 30 1010.7
20180619235602 94 308 2.0 6.0 0.00 0.00 0.00 31 1010.8
20180619234602 94 313 1.0 3.0 0.00 0.00 0.00 30 1010.8
20180619234102 94 343 2.0 5.0 0.00 0.00 0.00 31 1010.9
20180619233102 94 298 1.0 3.0 0.00 0.00 0.00 31 1010.9
20180619232602 93 313 2.0 3.0 0.00 0.00 0.00 32 1010.9
20180619232102 93 316 2.0 3.0 0.00 0.00 0.00 32 1010.9
20180619231602 93 317 1.0 6.0 0.00 0.00 0.00 31 1011.0
20180619230602 93 309 2.0 3.0 0.00 0.00 0.00 31 1011.1
20180619230102 93 316 1.0 3.0 0.00 0.00 0.00 33 1011.2
20180619225102 93 300 1.0 3.0 0.00 0.00 0.00 32 1011.3
20180619224602 93 277 1.0 3.0 0.00 0.00 0.00 32 1011.3
20180619224102 93 308 0.0 3.0 0.00 0.00 0.00 32 1011.4
20180619223602 93 324 1.0 3.0 0.00 0.00 0.00 33 1011.5
20180619223102 93 315 2.0 3.0 0.00 0.00 0.00 33 1011.5
20180619222102 93 40 1.0 3.0 0.00 0.00 0.00 32 1011.6
20180619221102 93 336 1.0 3.0 0.00 0.00 0.00 31 1011.7
20180619220103 92 243 1.0 3.0 0.00 0.00 0.00 31 1011.7
20180619215102 92 318 2.0 5.0 0.00 0.00 0.00 30 1011.9
20180619213602 91 315 1.0 3.0 0.00 0.00 0.00 32 1012.0
20180619212603 92 325 2.0 5.0 0.00 0.00 0.00 32 1012.2
20180619212102 92 320 2.0 5.0 0.00 0.00 0.00 33 1012.2
20180619211618 92 303 0.0 3.0 0.00 0.00 0.00 34 1012.3
20180619211104 92 321 1.0 3.0 0.00 0.00 0.00 35 1012.4
20180619210602 92 22 1.0 5.0 0.00 0.00 0.00 34 1012.4
20180619210103 91 286 1.0 5.0 0.00 0.00 0.00 34 1012.5
20180619205603 92 331 0.0 2.0 0.00 0.00 0.00 35 1012.5
20180619204602 92 236 0.0 3.0 0.00 0.00 0.00 33 1012.7
20180619204102 91 355 0.0 2.0 0.00 0.00 0.00 36 1012.7
20180619203603 91 250 1.0 2.0 0.00 0.00 0.00 35 1012.8
20180619203102 91 283 1.0 3.0 0.00 0.00 0.00 35 1012.8
20180619202603 90 137 1.0 3.0 0.00 0.00 0.00 36 1012.8
20180619202103 90 42 1.0 3.0 0.00 0.00 0.00 34 1012.9
20180619201602 90 0 1.0 2.0 0.00 0.00 0.00 37 1012.9
20180619201104 90 306 1.0 3.0 0.00 0.00 0.00 36 1013.0
20180619200602 90 281 1.0 3.0 0.00 0.00 0.00 36 1013.1
20180619195602 89 305 1.0 3.0 0.00 0.00 0.00 38 1013.2
20180619195102 89 327 1.0 2.0 0.00 0.00 0.00 36 1013.3
20180619193602 88 94 0.0 2.0 0.00 0.00 0.00 42 1013.4
20180619193104 88 316 1.0 5.0 0.00 0.00 0.00 40 1013.5
20180619192605 87 272 1.0 2.0 0.00 0.00 0.00 42 1013.6
20180619192105 87 304 0.0 2.0 0.00 0.00 0.00 40 1013.7
20180619191604 87 300 1.0 3.0 0.00 0.00 0.00 41 1013.8
20180619191102 87 97 0.0 3.0 0.00 0.00 0.00 41 1013.8